Location: Bergnershof
(48.9468°N, 10.9431°E)
Time: 22:28:35
(UTC+00:00)

Cosmos 1666 - Pass Details

Date: 03 March 2021
Orbit: 497 x 518 km, 82.5° (Epoch: 13 April)

Event Time Altitude Azimuth Distance (km) Brightness Sun altitude
Rises 18:28:52 0° 173° (S) 2,574 6.1 -14.9°
Reaches altitude 10° 18:31:01 10° 167° (SSE) 1,697 5.1 -15.2°
Maximum altitude 18:34:34 45° 94° (E) 696 2.9 -15.8°
Drops below altitude 10° 18:38:10 10° 21° (NNE) 1,717 5.2 -16.4°
Sets 18:40:21 0° 16° (NNE) 2,609 6.2 -16.7°
